Time,TemperatureF,DewpointF,PressureIn,WindDirection,WindDirectionDegrees,WindSpeedMPH,WindSpeedGustMPH,Humidity,HourlyPrecipIn,Conditions,Clouds,dailyrainin,SoftwareType,DateUTC
2013-01-12 00:01:00,43.2,42.7,30.13,SE,132,0.0,0.0,98,0.00,,,0.20,Wunderground PWS Mod,2013-01-12 05:01:00,
2013-01-12 00:02:00,43.2,42.7,30.13,SE,132,0.0,0.0,98,0.00,,,0.20,Wunderground PWS Mod,2013-01-12 05:02:00,
2013-01-12 00:03:00,43.2,42.7,30.13,SSE,148,0.0,0.0,98,0.00,,,0.20,Wunderground PWS Mod,2013-01-12 05:03:00,
2013-01-12 00:09:00,43.3,42.8,30.12,ESE,121,1.0,4.0,98,0.00,,,0.00,Wunderground PWS Mod,2013-01-12 05:09:00,
2013-01-12 00:14:00,43.3,42.8,30.12,SE,126,0.0,4.0,98,0.00,,,0.00,Wunderground PWS Mod,2013-01-12 05:14:00,
2013-01-12 00:20:00,43.2,42.7,30.12,SSE,155,0.0,4.0,98,0.00,,,0.00,Wunderground PWS Mod,2013-01-12 05:20:00,
2013-01-12 00:25:00,43.2,42.7,30.12,South,176,0.0,4.0,98,0.00,,,0.00,Wunderground PWS Mod,2013-01-12 05:25:00,
2013-01-12 00:30:00,43.3,42.8,30.12,SE,128,0.0,4.0,98,0.00,,,0.00,Wunderground PWS Mod,2013-01-12 05:30:00,
2013-01-12 00:35:00,43.5,43.0,30.12,ESE,108,0.0,4.0,98,0.00,,,0.00,Wunderground PWS Mod,2013-01-12 05:35:00,
2013-01-12 00:41:00,43.6,43.1,30.12,ESE,116,1.0,4.0,98,0.00,,,0.00,Wunderground PWS Mod,2013-01-12 05:41:00,
2013-01-12 00:46:00,43.4,42.9,30.12,ESE,123,1.0,4.0,98,0.00,,,0.00,Wunderground PWS Mod,2013-01-12 05:46:00,
2013-01-12 00:51:00,43.4,42.9,30.12,SE,136,0.0,4.0,98,0.00,,,0.00,Wunderground PWS Mod,2013-01-12 05:51:00,
2013-01-12 00:57:00,43.4,42.9,30.12,SE,134,0.0,4.0,98,0.00,,,0.00,Wunderground PWS Mod,2013-01-12 05:57:00,
2013-01-12 01:02:00,43.4,42.9,30.12,SE,130,0.0,4.0,98,0.00,,,0.00,Wunderground PWS Mod,2013-01-12 06:02:00,
2013-01-12 01:07:00,43.4,42.9,30.12,SE,129,1.0,4.0,98,0.00,,,0.00,Wunderground PWS Mod,2013-01-12 06:07:00,
2013-01-12 01:12:00,43.5,43.0,30.13,SE,134,0.0,4.0,98,0.00,,,0.00,Wunderground PWS Mod,2013-01-12 06:12:00,
2013-01-12 01:17:00,43.5,43.0,30.13,SE,128,0.0,4.0,98,0.00,,,0.00,Wunderground PWS Mod,2013-01-12 06:17:00,
2013-01-12 01:23:00,43.3,42.8,30.13,SE,130,0.0,4.0,98,0.00,,,0.00,Wunderground PWS Mod,2013-01-12 06:23:00,
2013-01-12 01:28:00,43.4,42.9,30.12,ESE,119,1.0,4.0,98,0.00,,,0.00,Wunderground PWS Mod,2013-01-12 06:28:00,
2013-01-12 01:33:00,43.5,43.0,30.12,ESE,121,2.0,4.0,98,0.00,,,0.00,Wunderground PWS Mod,2013-01-12 06:33:00,
2013-01-12 01:39:00,43.5,43.0,30.12,ESE,113,2.0,4.0,98,0.00,,,0.00,Wunderground PWS Mod,2013-01-12 06:39:00,
2013-01-12 01:44:00,43.4,42.9,30.12,ESE,119,1.0,4.0,98,0.00,,,0.01,Wunderground PWS Mod,2013-01-12 06:44:00,
2013-01-12 01:50:00,43.5,43.0,30.12,SE,128,1.0,4.0,98,0.00,,,0.01,Wunderground PWS Mod,2013-01-12 06:50:00,
2013-01-12 01:55:00,43.5,43.0,30.12,ESE,122,1.0,4.0,98,0.00,,,0.01,Wunderground PWS Mod,2013-01-12 06:55:00,
2013-01-12 02:00:00,43.6,43.1,30.12,ESE,121,1.0,4.0,98,0.00,,,0.01,Wunderground PWS Mod,2013-01-12 07:00:00,
2013-01-12 02:06:00,43.6,43.1,30.12,SE,132,2.0,4.0,98,0.00,,,0.01,Wunderground PWS Mod,2013-01-12 07:06:00,
2013-01-12 02:11:00,43.5,43.0,30.12,SE,134,1.0,4.0,98,0.00,,,0.01,Wunderground PWS Mod,2013-01-12 07:11:00,
2013-01-12 02:16:00,43.6,43.1,30.12,SE,144,1.0,4.0,98,0.00,,,0.02,Wunderground PWS Mod,2013-01-12 07:16:00,
2013-01-12 02:21:00,43.5,43.0,30.12,ESE,117,2.0,4.0,98,0.00,,,0.02,Wunderground PWS Mod,2013-01-12 07:21:00,
2013-01-12 02:26:00,43.5,43.0,30.11,ESE,115,2.0,4.0,98,0.00,,,0.02,Wunderground PWS Mod,2013-01-12 07:26:00,
2013-01-12 02:32:00,43.4,42.9,30.11,SE,125,2.0,4.0,98,0.00,,,0.02,Wunderground PWS Mod,2013-01-12 07:32:00,
2013-01-12 02:37:00,43.4,42.9,30.11,ESE,116,2.0,4.0,98,0.00,,,0.02,Wunderground PWS Mod,2013-01-12 07:37:00,
2013-01-12 02:43:00,43.4,42.9,30.11,SE,134,2.0,4.0,98,0.00,,,0.02,Wunderground PWS Mod,2013-01-12 07:43:00,
2013-01-12 02:48:00,43.3,42.8,30.10,ESE,121,1.0,4.0,98,0.00,,,0.02,Wunderground PWS Mod,2013-01-12 07:48:00,
2013-01-12 02:53:00,43.2,42.7,30.10,SE,134,1.0,4.0,98,0.00,,,0.02,Wunderground PWS Mod,2013-01-12 07:53:00,
2013-01-12 02:58:00,43.2,42.7,30.10,SE,126,2.0,4.0,98,0.00,,,0.02,Wunderground PWS Mod,2013-01-12 07:58:00,
2013-01-12 03:04:00,43.1,42.6,30.09,ESE,119,2.0,4.0,98,0.00,,,0.02,Wunderground PWS Mod,2013-01-12 08:04:00,
2013-01-12 03:10:00,43.0,42.5,30.09,SE,129,1.0,4.0,98,0.00,,,0.02,Wunderground PWS Mod,2013-01-12 08:10:00,
2013-01-12 03:15:00,42.9,42.4,30.09,SE,128,1.0,4.0,98,0.00,,,0.02,Wunderground PWS Mod,2013-01-12 08:15:00,
2013-01-12 03:20:00,42.9,42.4,30.09,ESE,121,2.0,4.0,98,0.00,,,0.02,Wunderground PWS Mod,2013-01-12 08:20:00,
2013-01-12 03:26:00,42.8,42.3,30.09,SE,128,1.0,4.0,98,0.00,,,0.02,Wunderground PWS Mod,2013-01-12 08:26:00,
2013-01-12 03:31:00,42.8,42.3,30.09,SE,131,1.0,4.0,98,0.00,,,0.02,Wunderground PWS Mod,2013-01-12 08:31:00,
2013-01-12 03:37:00,42.8,42.3,30.09,SE,126,1.0,4.0,98,0.00,,,0.02,Wunderground PWS Mod,2013-01-12 08:37:00,
2013-01-12 03:42:00,42.8,42.3,30.09,ESE,115,1.0,4.0,98,0.00,,,0.03,Wunderground PWS Mod,2013-01-12 08:42:00,
2013-01-12 03:48:00,42.7,42.2,30.09,SE,133,0.0,4.0,98,0.00,,,0.03,Wunderground PWS Mod,2013-01-12 08:48:00,
2013-01-12 03:53:00,42.5,42.0,30.09,SE,128,0.0,4.0,98,0.00,,,0.03,Wunderground PWS Mod,2013-01-12 08:53:00,
2013-01-12 03:59:00,42.5,42.0,30.08,ESE,110,1.0,4.0,98,0.00,,,0.03,Wunderground PWS Mod,2013-01-12 08:59:00,
2013-01-12 04:04:00,42.4,41.9,30.09,ESE,112,1.0,4.0,98,0.00,,,0.03,Wunderground PWS Mod,2013-01-12 09:04:00,
2013-01-12 04:10:00,42.4,41.9,30.09,ESE,123,1.0,4.0,98,0.00,,,0.03,Wunderground PWS Mod,2013-01-12 09:10:00,
2013-01-12 04:14:00,42.4,41.9,30.08,SE,135,1.0,4.0,98,0.01,,,0.06,Wunderground PWS Mod,2013-01-12 09:14:00,
2013-01-12 04:15:00,42.4,41.9,30.09,ESE,122,1.0,4.0,98,0.00,,,0.04,Wunderground PWS Mod,2013-01-12 09:15:00,
2013-01-12 04:21:00,42.4,41.9,30.08,ESE,118,2.0,4.0,98,0.00,,,0.04,Wunderground PWS Mod,2013-01-12 09:21:00,
2013-01-12 04:27:00,42.4,41.9,30.08,ESE,117,2.0,4.0,98,0.00,,,0.04,Wunderground PWS Mod,2013-01-12 09:27:00,
2013-01-12 04:32:00,42.3,41.8,30.08,ESE,123,1.0,4.0,98,0.00,,,0.04,Wunderground PWS Mod,2013-01-12 09:32:00,
2013-01-12 04:37:00,42.3,41.8,30.07,ESE,112,1.0,4.0,98,0.00,,,0.04,Wunderground PWS Mod,2013-01-12 09:37:00,
2013-01-12 04:43:00,42.2,41.7,30.07,SE,127,2.0,4.0,98,0.00,,,0.04,Wunderground PWS Mod,2013-01-12 09:43:00,
2013-01-12 04:48:00,42.1,41.6,30.08,SE,124,2.0,4.0,98,0.00,,,0.04,Wunderground PWS Mod,2013-01-12 09:48:00,
2013-01-12 04:53:00,42.1,41.6,30.08,ESE,106,1.0,4.0,98,0.00,,,0.04,Wunderground PWS Mod,2013-01-12 09:53:00,
2013-01-12 04:59:00,41.9,41.4,30.09,East,90,0.0,4.0,98,0.00,,,0.04,Wunderground PWS Mod,2013-01-12 09:59:00,
2013-01-12 05:04:00,41.9,41.4,30.09,East,90,0.0,4.0,98,0.00,,,0.04,Wunderground PWS Mod,2013-01-12 10:04:00,
2013-01-12 05:10:00,41.9,41.4,30.09,East,86,0.0,4.0,98,0.00,,,0.04,Wunderground PWS Mod,2013-01-12 10:10:00,
2013-01-12 05:15:00,42.2,41.7,30.09,East,92,1.0,4.0,98,0.00,,,0.04,Wunderground PWS Mod,2013-01-12 10:15:00,
2013-01-12 05:20:00,41.9,41.4,30.09,East,101,2.0,4.0,98,0.00,,,0.04,Wunderground PWS Mod,2013-01-12 10:20:00,
2013-01-12 05:25:00,41.7,41.2,30.08,East,100,2.0,4.0,98,0.00,,,0.05,Wunderground PWS Mod,2013-01-12 10:25:00,
2013-01-12 05:31:00,41.5,41.0,30.07,East,100,2.0,4.0,98,0.00,,,0.05,Wunderground PWS Mod,2013-01-12 10:31:00,
2013-01-12 05:36:00,41.5,41.0,30.07,East,101,2.0,4.0,98,0.00,,,0.05,Wunderground PWS Mod,2013-01-12 10:36:00,
2013-01-12 05:41:00,41.5,41.0,30.07,ESE,106,2.0,4.0,98,0.00,,,0.05,Wunderground PWS Mod,2013-01-12 10:41:00,
2013-01-12 05:47:00,41.5,41.0,30.07,ESE,112,2.0,4.0,98,0.00,,,0.05,Wunderground PWS Mod,2013-01-12 10:47:00,
2013-01-12 05:52:00,41.7,41.2,30.07,East,92,2.0,4.0,98,0.00,,,0.05,Wunderground PWS Mod,2013-01-12 10:52:00,
2013-01-12 05:58:00,41.4,40.9,30.06,ESE,103,2.0,4.0,98,0.00,,,0.05,Wunderground PWS Mod,2013-01-12 10:58:00,
2013-01-12 06:04:00,41.3,40.8,30.06,ESE,107,2.0,4.0,98,0.00,,,0.05,Wunderground PWS Mod,2013-01-12 11:04:00,
2013-01-12 06:09:00,41.2,40.7,30.07,East,93,3.0,4.0,98,0.00,,,0.05,Wunderground PWS Mod,2013-01-12 11:09:00,
2013-01-12 06:15:00,41.3,40.8,30.08,East,94,2.0,4.0,98,0.00,,,0.05,Wunderground PWS Mod,2013-01-12 11:15:00,
2013-01-12 06:20:00,41.3,40.8,30.09,East,84,1.0,4.0,98,0.00,,,0.05,Wunderground PWS Mod,2013-01-12 11:20:00,
2013-01-12 06:25:00,41.3,40.8,30.09,East,96,1.0,4.0,98,0.00,,,0.05,Wunderground PWS Mod,2013-01-12 11:25:00,
2013-01-12 06:31:00,41.5,41.0,30.09,East,93,1.0,4.0,98,0.00,,,0.05,Wunderground PWS Mod,2013-01-12 11:31:00,
2013-01-12 06:36:00,41.6,41.1,30.09,ENE,78,1.0,4.0,98,0.00,,,0.05,Wunderground PWS Mod,2013-01-12 11:36:00,
2013-01-12 06:41:00,41.4,40.9,30.09,East,96,1.0,4.0,98,0.00,,,0.05,Wunderground PWS Mod,2013-01-12 11:41:00,
2013-01-12 06:47:00,41.3,40.8,30.09,East,99,2.0,4.0,98,0.00,,,0.05,Wunderground PWS Mod,2013-01-12 11:47:00,
2013-01-12 06:52:00,41.2,40.7,30.09,East,99,2.0,4.0,98,0.00,,,0.05,Wunderground PWS Mod,2013-01-12 11:52:00,
2013-01-12 06:57:00,41.1,40.6,30.09,East,92,1.0,4.0,98,0.00,,,0.05,Wunderground PWS Mod,2013-01-12 11:57:00,
2013-01-12 07:02:00,41.1,40.6,30.10,East,92,0.0,4.0,98,0.00,,,0.05,Wunderground PWS Mod,2013-01-12 12:02:00,
2013-01-12 07:07:00,41.1,40.6,30.11,ESE,107,0.0,4.0,98,0.00,,,0.05,Wunderground PWS Mod,2013-01-12 12:07:00,
2013-01-12 07:13:00,41.2,40.7,30.11,East,80,0.0,4.0,98,0.00,,,0.05,Wunderground PWS Mod,2013-01-12 12:13:00,
2013-01-12 07:18:00,41.3,40.8,30.11,East,91,0.0,4.0,98,0.00,,,0.06,Wunderground PWS Mod,2013-01-12 12:18:00,
2013-01-12 07:24:00,41.1,40.6,30.11,East,94,1.0,4.0,98,0.00,,,0.06,Wunderground PWS Mod,2013-01-12 12:24:00,
2013-01-12 07:29:00,41.0,40.5,30.11,East,94,0.0,4.0,98,0.00,,,0.06,Wunderground PWS Mod,2013-01-12 12:29:00,
2013-01-12 07:35:00,40.9,40.4,30.11,East,101,0.0,4.0,98,0.00,,,0.06,Wunderground PWS Mod,2013-01-12 12:35:00,
2013-01-12 07:40:00,41.0,40.5,30.12,East,90,1.0,4.0,98,0.00,,,0.06,Wunderground PWS Mod,2013-01-12 12:40:00,
2013-01-12 07:45:00,41.0,40.5,30.12,East,92,1.0,4.0,98,0.00,,,0.06,Wunderground PWS Mod,2013-01-12 12:45:00,
2013-01-12 07:51:00,41.1,40.6,30.12,East,82,1.0,4.0,98,0.00,,,0.06,Wunderground PWS Mod,2013-01-12 12:51:00,
2013-01-12 07:56:00,41.2,40.7,30.12,East,94,1.0,4.0,98,0.00,,,0.06,Wunderground PWS Mod,2013-01-12 12:56:00,
2013-01-12 08:01:00,41.0,40.5,30.12,East,82,1.0,4.0,98,0.00,,,0.06,Wunderground PWS Mod,2013-01-12 13:01:00,
2013-01-12 08:07:00,41.0,40.5,30.12,East,90,1.0,3.0,98,0.00,,,0.06,Wunderground PWS Mod,2013-01-12 13:07:00,
2013-01-12 08:12:00,40.9,40.4,30.11,East,90,1.0,3.0,98,0.00,,,0.06,Wunderground PWS Mod,2013-01-12 13:12:00,
2013-01-12 08:14:00,41.0,40.5,30.12,East,90,1.0,3.0,98,0.01,,,0.06,Wunderground PWS Mod,2013-01-12 13:14:00,
2013-01-12 08:17:00,40.9,40.4,30.12,East,90,1.0,3.0,98,0.00,,,0.06,Wunderground PWS Mod,2013-01-12 13:17:00,
2013-01-12 08:23:00,40.8,40.3,30.13,ENE,71,1.0,3.0,98,0.00,,,0.06,Wunderground PWS Mod,2013-01-12 13:23:00,
2013-01-12 08:28:00,40.8,40.3,30.13,East,89,1.0,3.0,98,0.00,,,0.06,Wunderground PWS Mod,2013-01-12 13:28:00,
2013-01-12 08:34:00,40.9,40.4,30.12,East,86,1.0,3.0,98,0.00,,,0.06,Wunderground PWS Mod,2013-01-12 13:34:00,
2013-01-12 08:40:00,41.1,40.6,30.13,East,91,0.0,3.0,98,0.00,,,0.06,Wunderground PWS Mod,2013-01-12 13:40:00,
2013-01-12 08:45:00,40.9,40.4,30.13,East,84,1.0,3.0,98,0.00,,,0.06,Wunderground PWS Mod,2013-01-12 13:45:00,
2013-01-12 08:51:00,40.9,40.4,30.12,East,88,1.0,3.0,98,0.00,,,0.06,Wunderground PWS Mod,2013-01-12 13:51:00,
2013-01-12 08:56:00,40.9,40.4,30.12,ENE,74,1.0,3.0,98,0.00,,,0.06,Wunderground PWS Mod,2013-01-12 13:56:00,
2013-01-12 09:02:00,40.9,40.4,30.12,East,101,1.0,3.0,98,0.00,,,0.06,Wunderground PWS Mod,2013-01-12 14:02:00,
2013-01-12 09:07:00,40.8,40.3,30.12,East,92,1.0,3.0,98,0.00,,,0.06,Wunderground PWS Mod,2013-01-12 14:07:00,
2013-01-12 09:12:00,40.9,40.4,30.12,East,97,1.0,3.0,98,0.00,,,0.06,Wunderground PWS Mod,2013-01-12 14:12:00,
2013-01-12 09:17:00,41.3,40.8,30.12,East,87,1.0,3.0,98,0.00,,,0.06,Wunderground PWS Mod,2013-01-12 14:17:00,
2013-01-12 09:23:00,41.3,40.8,30.12,ENE,73,1.0,3.0,98,0.00,,,0.06,Wunderground PWS Mod,2013-01-12 14:23:00,
2013-01-12 09:28:00,41.3,40.8,30.13,East,92,2.0,3.0,98,0.00,,,0.06,Wunderground PWS Mod,2013-01-12 14:28:00,
2013-01-12 09:33:00,41.3,40.8,30.12,ESE,103,2.0,3.0,98,0.00,,,0.06,Wunderground PWS Mod,2013-01-12 14:33:00,
2013-01-12 09:38:00,41.4,40.9,30.12,East,83,2.0,3.0,98,0.00,,,0.06,Wunderground PWS Mod,2013-01-12 14:38:00,
2013-01-12 09:44:00,41.8,41.3,30.12,East,92,2.0,3.0,98,0.00,,,0.06,Wunderground PWS Mod,2013-01-12 14:44:00,
2013-01-12 09:49:00,42.2,41.7,30.12,ENE,69,1.0,3.0,98,0.00,,,0.06,Wunderground PWS Mod,2013-01-12 14:49:00,
2013-01-12 09:54:00,42.4,41.9,30.12,East,94,1.0,3.0,98,0.00,,,0.06,Wunderground PWS Mod,2013-01-12 14:54:00,
2013-01-12 10:00:00,42.7,42.2,30.12,East,92,2.0,3.0,98,0.00,,,0.06,Wunderground PWS Mod,2013-01-12 15:00:00,
2013-01-12 10:05:00,42.6,42.1,30.13,ENE,77,1.0,3.0,98,0.00,,,0.06,Wunderground PWS Mod,2013-01-12 15:05:00,
2013-01-12 10:11:00,42.6,42.1,30.13,NNE,28,1.0,3.0,98,0.00,,,0.06,Wunderground PWS Mod,2013-01-12 15:11:00,
2013-01-12 10:16:00,42.6,42.1,30.14,NNE,30,0.0,3.0,98,0.00,,,0.06,Wunderground PWS Mod,2013-01-12 15:16:00,
2013-01-12 10:22:00,42.7,42.2,30.13,ENE,68,0.0,3.0,98,0.00,,,0.06,Wunderground PWS Mod,2013-01-12 15:22:00,
2013-01-12 10:27:00,42.7,42.2,30.12,ENE,76,0.0,3.0,98,0.00,,,0.06,Wunderground PWS Mod,2013-01-12 15:27:00,
2013-01-12 10:32:00,42.7,42.2,30.12,East,92,0.0,3.0,98,0.00,,,0.06,Wunderground PWS Mod,2013-01-12 15:32:00,
2013-01-12 10:37:00,42.7,42.2,30.12,ENE,67,0.0,3.0,98,0.00,,,0.06,Wunderground PWS Mod,2013-01-12 15:37:00,
2013-01-12 10:42:00,42.9,42.4,30.12,East,93,0.0,3.0,98,0.00,,,0.06,Wunderground PWS Mod,2013-01-12 15:42:00,
2013-01-12 10:48:00,43.0,42.5,30.11,East,94,1.0,3.0,98,0.00,,,0.06,Wunderground PWS Mod,2013-01-12 15:48:00,
2013-01-12 10:53:00,43.0,42.5,30.11,East,94,1.0,3.0,98,0.00,,,0.06,Wunderground PWS Mod,2013-01-12 15:53:00,
2013-01-12 10:58:00,43.0,42.5,30.11,East,84,0.0,3.0,98,0.00,,,0.06,Wunderground PWS Mod,2013-01-12 15:58:00,
2013-01-12 11:03:00,43.0,42.5,30.11,East,84,0.0,3.0,98,0.00,,,0.06,Wunderground PWS Mod,2013-01-12 16:03:00,
2013-01-12 11:08:00,43.2,42.7,30.10,East,84,0.0,3.0,98,0.00,,,0.06,Wunderground PWS Mod,2013-01-12 16:08:00,
2013-01-12 11:14:00,43.2,42.7,30.10,East,84,0.0,3.0,98,0.00,,,0.06,Wunderground PWS Mod,2013-01-12 16:14:00,
2013-01-12 11:20:00,43.2,42.7,30.10,East,84,0.0,3.0,98,0.00,,,0.06,Wunderground PWS Mod,2013-01-12 16:20:00,
2013-01-12 11:25:00,43.5,43.0,30.10,East,85,0.0,3.0,98,0.00,,,0.06,Wunderground PWS Mod,2013-01-12 16:25:00,
2013-01-12 11:30:00,43.7,43.2,30.09,East,94,0.0,3.0,98,0.00,,,0.06,Wunderground PWS Mod,2013-01-12 16:30:00,
2013-01-12 11:36:00,43.8,43.3,30.09,East,87,0.0,3.0,98,0.00,,,0.06,Wunderground PWS Mod,2013-01-12 16:36:00,
2013-01-12 11:41:00,43.9,43.4,30.09,East,86,0.0,3.0,98,0.00,,,0.06,Wunderground PWS Mod,2013-01-12 16:41:00,
2013-01-12 11:47:00,44.1,43.6,30.09,East,86,0.0,3.0,98,0.00,,,0.06,Wunderground PWS Mod,2013-01-12 16:47:00,
2013-01-12 11:52:00,44.1,43.6,30.09,East,86,0.0,3.0,98,0.00,,,0.06,Wunderground PWS Mod,2013-01-12 16:52:00,
2013-01-12 11:57:00,44.1,43.6,30.10,East,86,0.0,3.0,98,0.00,,,0.06,Wunderground PWS Mod,2013-01-12 16:57:00,
2013-01-12 12:02:00,44.2,43.7,30.08,East,86,0.0,3.0,98,0.00,,,0.06,Wunderground PWS Mod,2013-01-12 17:02:00,
2013-01-12 12:08:00,44.3,43.8,30.08,East,86,0.0,2.0,98,0.00,,,0.06,Wunderground PWS Mod,2013-01-12 17:08:00,
2013-01-12 12:13:00,44.5,44.0,30.08,East,86,0.0,2.0,98,0.00,,,0.06,Wunderground PWS Mod,2013-01-12 17:13:00,
2013-01-12 12:14:00,44.2,43.7,30.08,East,90,0.0,2.0,98,0.00,,,0.06,Wunderground PWS Mod,2013-01-12 17:14:00,
2013-01-12 12:19:00,44.4,43.9,30.08,East,86,0.0,2.0,98,0.00,,,0.06,Wunderground PWS Mod,2013-01-12 17:19:00,
2013-01-12 12:24:00,44.7,44.2,30.08,East,86,0.0,2.0,98,0.00,,,0.06,Wunderground PWS Mod,2013-01-12 17:24:00,
2013-01-12 12:29:00,44.7,44.2,30.08,East,86,0.0,2.0,98,0.00,,,0.06,Wunderground PWS Mod,2013-01-12 17:29:00,
2013-01-12 12:35:00,44.6,44.1,30.08,East,86,0.0,2.0,98,0.00,,,0.06,Wunderground PWS Mod,2013-01-12 17:35:00,
2013-01-12 12:40:00,44.6,44.1,30.07,East,86,0.0,2.0,98,0.00,,,0.06,Wunderground PWS Mod,2013-01-12 17:40:00,
2013-01-12 12:45:00,44.7,44.2,30.08,East,86,0.0,2.0,98,0.00,,,0.06,Wunderground PWS Mod,2013-01-12 17:45:00,
2013-01-12 12:51:00,44.8,44.3,30.10,NNW,347,0.0,2.0,98,0.00,,,0.06,Wunderground PWS Mod,2013-01-12 17:51:00,
2013-01-12 12:56:00,44.9,44.4,30.11,NNW,340,0.0,2.0,98,0.00,,,0.06,Wunderground PWS Mod,2013-01-12 17:56:00,
2013-01-12 13:01:00,44.8,44.3,30.10,NNW,340,0.0,2.0,98,0.00,,,0.06,Wunderground PWS Mod,2013-01-12 18:01:00,
2013-01-12 13:06:00,44.9,44.4,30.08,East,91,0.0,2.0,98,0.00,,,0.06,Wunderground PWS Mod,2013-01-12 18:06:00,
2013-01-12 13:11:00,45.0,44.5,30.09,East,91,0.0,2.0,98,0.00,,,0.06,Wunderground PWS Mod,2013-01-12 18:11:00,
2013-01-12 13:16:00,45.2,44.7,30.09,East,91,0.0,2.0,98,0.00,,,0.06,Wunderground PWS Mod,2013-01-12 18:16:00,
2013-01-12 13:22:00,45.2,44.7,30.10,East,91,0.0,2.0,98,0.00,,,0.06,Wunderground PWS Mod,2013-01-12 18:22:00,
2013-01-12 13:27:00,45.3,44.8,30.10,East,91,0.0,2.0,98,0.00,,,0.06,Wunderground PWS Mod,2013-01-12 18:27:00,
2013-01-12 13:33:00,45.4,44.9,30.09,East,97,0.0,2.0,98,0.00,,,0.06,Wunderground PWS Mod,2013-01-12 18:33:00,
2013-01-12 13:38:00,45.6,45.1,30.09,East,97,0.0,2.0,98,0.00,,,0.06,Wunderground PWS Mod,2013-01-12 18:38:00,
2013-01-12 13:44:00,45.6,45.1,30.10,ENE,61,0.0,2.0,98,0.00,,,0.06,Wunderground PWS Mod,2013-01-12 18:44:00,
2013-01-12 13:50:00,45.6,45.1,30.10,ENE,65,0.0,2.0,98,0.00,,,0.06,Wunderground PWS Mod,2013-01-12 18:50:00,
2013-01-12 13:55:00,45.5,45.0,30.10,ENE,65,0.0,2.0,98,0.00,,,0.06,Wunderground PWS Mod,2013-01-12 18:55:00,
2013-01-12 14:00:00,45.6,45.1,30.10,ENE,61,0.0,2.0,98,0.00,,,0.06,Wunderground PWS Mod,2013-01-12 19:00:00,
2013-01-12 14:05:00,45.7,45.2,30.11,ENE,61,0.0,2.0,98,0.00,,,0.06,Wunderground PWS Mod,2013-01-12 19:05:00,
2013-01-12 14:11:00,45.8,45.3,30.11,NE,36,0.0,2.0,98,0.00,,,0.06,Wunderground PWS Mod,2013-01-12 19:11:00,
2013-01-12 14:16:00,45.7,45.2,30.11,NNE,32,0.0,2.0,98,0.00,,,0.06,Wunderground PWS Mod,2013-01-12 19:16:00,
2013-01-12 14:21:00,45.9,45.4,30.12,NNE,32,0.0,2.0,98,0.00,,,0.06,Wunderground PWS Mod,2013-01-12 19:21:00,
2013-01-12 14:26:00,45.9,45.4,30.11,NNE,32,0.0,2.0,98,0.00,,,0.06,Wunderground PWS Mod,2013-01-12 19:26:00,
2013-01-12 14:32:00,46.0,45.5,30.12,NNE,32,0.0,2.0,98,0.00,,,0.06,Wunderground PWS Mod,2013-01-12 19:32:00,
2013-01-12 14:37:00,46.0,45.5,30.12,NNE,32,0.0,2.0,98,0.00,,,0.06,Wunderground PWS Mod,2013-01-12 19:37:00,
2013-01-12 14:42:00,46.0,45.5,30.12,NNE,32,0.0,2.0,98,0.00,,,0.06,Wunderground PWS Mod,2013-01-12 19:42:00,
2013-01-12 14:47:00,46.0,45.5,30.12,NNE,32,0.0,2.0,98,0.00,,,0.06,Wunderground PWS Mod,2013-01-12 19:47:00,
2013-01-12 14:53:00,46.1,45.6,30.12,NNE,32,0.0,2.0,98,0.00,,,0.06,Wunderground PWS Mod,2013-01-12 19:53:00,
2013-01-12 14:58:00,46.2,45.7,30.12,ENE,68,0.0,2.0,98,0.00,,,0.06,Wunderground PWS Mod,2013-01-12 19:58:00,
2013-01-12 15:04:00,46.1,45.6,30.12,ENE,68,0.0,2.0,98,0.00,,,0.06,Wunderground PWS Mod,2013-01-12 20:04:00,
2013-01-12 15:10:00,46.1,45.6,30.10,East,92,0.0,2.0,98,0.00,,,0.06,Wunderground PWS Mod,2013-01-12 20:10:00,
2013-01-12 15:15:00,46.0,45.5,30.10,East,92,0.0,2.0,98,0.00,,,0.06,Wunderground PWS Mod,2013-01-12 20:15:00,
2013-01-12 15:20:00,46.1,45.6,30.11,East,92,0.0,2.0,98,0.00,,,0.06,Wunderground PWS Mod,2013-01-12 20:20:00,
2013-01-12 15:25:00,46.1,45.6,30.11,East,92,0.0,2.0,98,0.00,,,0.06,Wunderground PWS Mod,2013-01-12 20:25:00,
2013-01-12 15:30:00,46.1,45.6,30.10,East,92,0.0,2.0,98,0.00,,,0.06,Wunderground PWS Mod,2013-01-12 20:30:00,
2013-01-12 15:36:00,46.0,45.5,30.10,East,92,0.0,2.0,98,0.00,,,0.06,Wunderground PWS Mod,2013-01-12 20:36:00,
2013-01-12 15:42:00,46.0,45.5,30.11,East,92,0.0,2.0,98,0.00,,,0.06,Wunderground PWS Mod,2013-01-12 20:42:00,
2013-01-12 15:47:00,45.9,45.4,30.11,East,92,0.0,2.0,98,0.00,,,0.06,Wunderground PWS Mod,2013-01-12 20:47:00,
2013-01-12 15:52:00,46.0,45.5,30.11,East,92,0.0,2.0,98,0.00,,,0.06,Wunderground PWS Mod,2013-01-12 20:52:00,
2013-01-12 15:58:00,46.0,45.5,30.11,East,92,0.0,2.0,98,0.00,,,0.06,Wunderground PWS Mod,2013-01-12 20:58:00,
2013-01-12 16:03:00,46.0,45.5,30.11,East,92,0.0,2.0,98,0.00,,,0.06,Wunderground PWS Mod,2013-01-12 21:03:00,
2013-01-12 16:09:00,46.0,45.5,30.11,East,92,0.0,0.0,98,0.00,,,0.06,Wunderground PWS Mod,2013-01-12 21:09:00,
2013-01-12 16:14:00,46.0,45.5,30.12,East,92,0.0,0.0,98,0.00,,,0.06,Wunderground PWS Mod,2013-01-12 21:14:00,
2013-01-12 16:19:00,46.0,45.5,30.12,East,92,0.0,0.0,98,0.00,,,0.06,Wunderground PWS Mod,2013-01-12 21:19:00,
2013-01-12 16:25:00,46.0,45.5,30.12,East,92,0.0,0.0,98,0.00,,,0.06,Wunderground PWS Mod,2013-01-12 21:25:00,
2013-01-12 16:30:00,46.0,45.5,30.12,East,92,0.0,0.0,98,0.00,,,0.06,Wunderground PWS Mod,2013-01-12 21:30:00,
2013-01-12 16:35:00,46.0,45.5,30.12,East,92,0.0,0.0,98,0.00,,,0.06,Wunderground PWS Mod,2013-01-12 21:35:00,
2013-01-12 16:40:00,45.9,45.4,30.12,East,92,0.0,0.0,98,0.00,,,0.06,Wunderground PWS Mod,2013-01-12 21:40:00,
2013-01-12 16:46:00,45.9,45.4,30.12,East,92,0.0,0.0,98,0.00,,,0.06,Wunderground PWS Mod,2013-01-12 21:46:00,
2013-01-12 16:51:00,45.9,45.4,30.12,East,92,0.0,0.0,98,0.00,,,0.06,Wunderground PWS Mod,2013-01-12 21:51:00,
2013-01-12 16:56:00,45.8,45.3,30.11,East,92,0.0,0.0,98,0.00,,,0.06,Wunderground PWS Mod,2013-01-12 21:56:00,
2013-01-12 17:02:00,45.8,45.3,30.11,East,92,0.0,0.0,98,0.00,,,0.06,Wunderground PWS Mod,2013-01-12 22:02:00,
2013-01-12 17:07:00,45.8,45.3,30.11,East,92,0.0,0.0,98,0.00,,,0.06,Wunderground PWS Mod,2013-01-12 22:07:00,
2013-01-12 17:12:00,45.8,45.3,30.11,East,92,0.0,0.0,98,0.00,,,0.06,Wunderground PWS Mod,2013-01-12 22:12:00,
2013-01-12 17:17:00,45.7,45.2,30.11,East,92,0.0,0.0,98,0.00,,,0.06,Wunderground PWS Mod,2013-01-12 22:17:00,
2013-01-12 17:23:00,45.7,45.2,30.11,East,92,0.0,0.0,98,0.00,,,0.06,Wunderground PWS Mod,2013-01-12 22:23:00,
2013-01-12 17:29:00,45.6,45.1,30.12,East,92,0.0,0.0,98,0.00,,,0.06,Wunderground PWS Mod,2013-01-12 22:29:00,
2013-01-12 17:34:00,45.6,45.1,30.12,East,92,0.0,0.0,98,0.00,,,0.06,Wunderground PWS Mod,2013-01-12 22:34:00,
2013-01-12 17:40:00,45.6,45.1,30.12,East,92,0.0,0.0,98,0.00,,,0.06,Wunderground PWS Mod,2013-01-12 22:40:00,
2013-01-12 17:45:00,45.6,45.1,30.13,East,92,0.0,0.0,98,0.00,,,0.06,Wunderground PWS Mod,2013-01-12 22:45:00,
2013-01-12 17:51:00,45.6,45.1,30.13,East,92,0.0,0.0,98,0.00,,,0.06,Wunderground PWS Mod,2013-01-12 22:51:00,
2013-01-12 17:56:00,45.6,45.1,30.12,East,92,0.0,0.0,98,0.00,,,0.06,Wunderground PWS Mod,2013-01-12 22:56:00,
2013-01-12 18:02:00,45.6,45.1,30.12,East,92,0.0,0.0,98,0.00,,,0.06,Wunderground PWS Mod,2013-01-12 23:02:00,
2013-01-12 18:08:00,45.5,45.0,30.12,East,92,0.0,0.0,98,0.00,,,0.06,Wunderground PWS Mod,2013-01-12 23:08:00,
2013-01-12 18:14:00,45.5,45.0,30.12,East,92,0.0,0.0,98,0.00,,,0.06,Wunderground PWS Mod,2013-01-12 23:14:00,
2013-01-12 18:19:00,45.5,45.0,30.12,East,92,0.0,0.0,98,0.00,,,0.06,Wunderground PWS Mod,2013-01-12 23:19:00,
2013-01-12 18:25:00,45.4,44.9,30.13,East,92,0.0,0.0,98,0.00,,,0.06,Wunderground PWS Mod,2013-01-12 23:25:00,
2013-01-12 18:30:00,45.4,44.9,30.13,East,92,0.0,0.0,98,0.00,,,0.06,Wunderground PWS Mod,2013-01-12 23:30:00,
2013-01-12 18:36:00,45.4,44.9,30.13,East,92,0.0,0.0,98,0.00,,,0.06,Wunderground PWS Mod,2013-01-12 23:36:00,
2013-01-12 18:41:00,45.4,44.9,30.13,East,92,0.0,0.0,98,0.00,,,0.06,Wunderground PWS Mod,2013-01-12 23:41:00,
2013-01-12 18:46:00,45.4,44.9,30.12,East,92,0.0,0.0,98,0.00,,,0.07,Wunderground PWS Mod,2013-01-12 23:46:00,
2013-01-12 18:52:00,45.4,44.9,30.12,East,92,0.0,0.0,98,0.00,,,0.07,Wunderground PWS Mod,2013-01-12 23:52:00,
2013-01-12 18:58:00,45.4,44.9,30.12,East,92,0.0,0.0,98,0.00,,,0.07,Wunderground PWS Mod,2013-01-12 23:58:00,
2013-01-12 19:04:00,45.4,44.9,30.12,East,92,0.0,0.0,98,0.00,,,0.07,Wunderground PWS Mod,2013-01-13 00:04:00,
2013-01-12 19:10:00,45.4,44.9,30.12,East,92,0.0,0.0,98,0.00,,,0.07,Wunderground PWS Mod,2013-01-13 00:10:00,
2013-01-12 19:15:00,45.3,44.8,30.11,East,92,0.0,0.0,98,0.00,,,0.07,Wunderground PWS Mod,2013-01-13 00:15:00,
2013-01-12 19:20:00,45.2,44.7,30.11,East,92,0.0,0.0,98,0.00,,,0.07,Wunderground PWS Mod,2013-01-13 00:20:00,
2013-01-12 19:26:00,45.2,44.7,30.11,East,92,0.0,0.0,98,0.00,,,0.07,Wunderground PWS Mod,2013-01-13 00:26:00,
2013-01-12 19:31:00,45.1,44.6,30.10,East,92,0.0,0.0,98,0.00,,,0.07,Wunderground PWS Mod,2013-01-13 00:31:00,
2013-01-12 19:36:00,45.1,44.6,30.11,East,92,0.0,0.0,98,0.00,,,0.07,Wunderground PWS Mod,2013-01-13 00:36:00,
2013-01-12 19:42:00,45.0,44.5,30.11,East,92,0.0,0.0,98,0.00,,,0.07,Wunderground PWS Mod,2013-01-13 00:42:00,
2013-01-12 19:47:00,45.0,44.5,30.11,East,92,0.0,0.0,98,0.00,,,0.07,Wunderground PWS Mod,2013-01-13 00:47:00,
2013-01-12 19:53:00,45.0,44.5,30.11,East,92,0.0,0.0,98,0.00,,,0.07,Wunderground PWS Mod,2013-01-13 00:53:00,
2013-01-12 19:59:00,45.0,44.5,30.10,East,92,0.0,0.0,98,0.00,,,0.07,Wunderground PWS Mod,2013-01-13 00:59:00,
2013-01-12 20:04:00,44.9,44.4,30.10,East,92,0.0,0.0,98,0.00,,,0.07,Wunderground PWS Mod,2013-01-13 01:04:00,
2013-01-12 20:09:00,44.9,44.4,30.10,East,92,0.0,0.0,98,0.00,,,0.07,Wunderground PWS Mod,2013-01-13 01:09:00,
2013-01-12 20:14:00,45.0,44.5,30.10,N/A,-737280,0.0,0.0,98,0.00,,,0.08,Wunderground PWS Mod,2013-01-13 01:14:00,
2013-01-12 20:15:00,44.9,44.4,30.11,East,92,0.0,0.0,98,0.00,,,0.07,Wunderground PWS Mod,2013-01-13 01:15:00,
2013-01-12 20:20:00,44.9,44.4,30.11,East,92,0.0,0.0,98,0.00,,,0.07,Wunderground PWS Mod,2013-01-13 01:20:00,
2013-01-12 20:26:00,44.9,44.4,30.11,East,92,0.0,0.0,98,0.00,,,0.07,Wunderground PWS Mod,2013-01-13 01:26:00,
2013-01-12 20:31:00,44.9,44.4,30.11,East,92,0.0,0.0,98,0.00,,,0.07,Wunderground PWS Mod,2013-01-13 01:31:00,
2013-01-12 20:37:00,44.9,44.4,30.12,East,92,0.0,0.0,98,0.00,,,0.07,Wunderground PWS Mod,2013-01-13 01:37:00,
2013-01-12 20:42:00,44.9,44.4,30.11,East,92,0.0,0.0,98,0.00,,,0.07,Wunderground PWS Mod,2013-01-13 01:42:00,
2013-01-12 20:48:00,44.9,44.4,30.12,East,92,0.0,0.0,98,0.00,,,0.07,Wunderground PWS Mod,2013-01-13 01:48:00,
2013-01-12 20:54:00,44.9,44.4,30.12,East,92,0.0,0.0,98,0.00,,,0.07,Wunderground PWS Mod,2013-01-13 01:54:00,
2013-01-12 21:00:00,44.9,44.4,30.12,East,92,0.0,0.0,98,0.00,,,0.07,Wunderground PWS Mod,2013-01-13 02:00:00,
2013-01-12 21:05:00,44.9,44.4,30.12,East,92,0.0,0.0,98,0.00,,,0.07,Wunderground PWS Mod,2013-01-13 02:05:00,
2013-01-12 21:10:00,44.9,44.4,30.12,East,92,0.0,0.0,98,0.00,,,0.07,Wunderground PWS Mod,2013-01-13 02:10:00,
2013-01-12 21:16:00,44.8,44.3,30.12,East,92,0.0,0.0,98,0.00,,,0.07,Wunderground PWS Mod,2013-01-13 02:16:00,
2013-01-12 21:21:00,44.8,44.3,30.11,East,92,0.0,0.0,98,0.00,,,0.07,Wunderground PWS Mod,2013-01-13 02:21:00,
2013-01-12 21:27:00,44.9,44.4,30.11,East,92,0.0,0.0,98,0.00,,,0.07,Wunderground PWS Mod,2013-01-13 02:27:00,
2013-01-12 21:32:00,44.8,44.3,30.10,East,92,0.0,0.0,98,0.00,,,0.07,Wunderground PWS Mod,2013-01-13 02:32:00,
2013-01-12 21:37:00,44.8,44.3,30.10,East,92,0.0,0.0,98,0.00,,,0.07,Wunderground PWS Mod,2013-01-13 02:37:00,
2013-01-12 21:43:00,44.7,44.2,30.10,East,92,0.0,0.0,98,0.00,,,0.08,Wunderground PWS Mod,2013-01-13 02:43:00,
2013-01-12 21:48:00,44.7,44.2,30.10,East,92,0.0,0.0,98,0.00,,,0.08,Wunderground PWS Mod,2013-01-13 02:48:00,
2013-01-12 21:54:00,44.7,44.4,30.10,East,92,0.0,0.0,99,0.00,,,0.08,Wunderground PWS Mod,2013-01-13 02:54:00,
2013-01-12 21:59:00,44.7,44.4,30.10,East,92,0.0,0.0,99,0.00,,,0.08,Wunderground PWS Mod,2013-01-13 02:59:00,
2013-01-12 22:04:00,44.7,44.4,30.10,East,92,0.0,0.0,99,0.00,,,0.08,Wunderground PWS Mod,2013-01-13 03:04:00,
2013-01-12 22:10:00,44.7,44.4,30.11,East,92,0.0,0.0,99,0.00,,,0.08,Wunderground PWS Mod,2013-01-13 03:10:00,
2013-01-12 22:15:00,44.7,44.4,30.10,East,92,0.0,0.0,99,0.00,,,0.08,Wunderground PWS Mod,2013-01-13 03:15:00,
2013-01-12 22:20:00,44.7,44.2,30.10,East,92,0.0,0.0,98,0.00,,,0.08,Wunderground PWS Mod,2013-01-13 03:20:00,
2013-01-12 22:25:00,44.8,44.3,30.09,East,92,0.0,0.0,98,0.00,,,0.08,Wunderground PWS Mod,2013-01-13 03:25:00,
2013-01-12 22:31:00,44.7,44.2,30.10,East,92,0.0,0.0,98,0.00,,,0.08,Wunderground PWS Mod,2013-01-13 03:31:00,
2013-01-12 22:36:00,44.8,44.3,30.10,East,92,0.0,0.0,98,0.00,,,0.08,Wunderground PWS Mod,2013-01-13 03:36:00,
2013-01-12 22:42:00,44.8,44.3,30.10,East,92,0.0,0.0,98,0.00,,,0.08,Wunderground PWS Mod,2013-01-13 03:42:00,
2013-01-12 22:47:00,44.8,44.3,30.10,East,92,0.0,0.0,98,0.00,,,0.08,Wunderground PWS Mod,2013-01-13 03:47:00,
2013-01-12 22:53:00,44.7,44.2,30.09,East,92,0.0,0.0,98,0.00,,,0.08,Wunderground PWS Mod,2013-01-13 03:53:00,
2013-01-12 22:58:00,44.8,44.3,30.09,East,92,0.0,0.0,98,0.00,,,0.08,Wunderground PWS Mod,2013-01-13 03:58:00,
2013-01-12 23:04:00,44.8,44.3,30.09,East,92,0.0,0.0,98,0.00,,,0.08,Wunderground PWS Mod,2013-01-13 04:04:00,
2013-01-12 23:10:00,44.7,44.2,30.09,East,92,0.0,0.0,98,0.00,,,0.08,Wunderground PWS Mod,2013-01-13 04:10:00,
2013-01-12 23:15:00,44.7,44.2,30.09,East,92,0.0,0.0,98,0.00,,,0.08,Wunderground PWS Mod,2013-01-13 04:15:00,
2013-01-12 23:21:00,44.7,44.2,30.10,East,92,0.0,0.0,98,0.00,,,0.08,Wunderground PWS Mod,2013-01-13 04:21:00,
2013-01-12 23:26:00,44.7,44.2,30.09,East,92,0.0,0.0,98,0.00,,,0.08,Wunderground PWS Mod,2013-01-13 04:26:00,
2013-01-12 23:31:00,44.7,44.2,30.09,East,92,0.0,0.0,98,0.00,,,0.08,Wunderground PWS Mod,2013-01-13 04:31:00,
2013-01-12 23:36:00,44.6,44.1,30.09,East,92,0.0,0.0,98,0.00,,,0.08,Wunderground PWS Mod,2013-01-13 04:36:00,
2013-01-12 23:42:00,44.5,44.2,30.09,East,92,0.0,0.0,99,0.00,,,0.08,Wunderground PWS Mod,2013-01-13 04:42:00,
2013-01-12 23:47:00,44.5,44.2,30.10,East,92,0.0,0.0,99,0.00,,,0.08,Wunderground PWS Mod,2013-01-13 04:47:00,
2013-01-12 23:53:00,44.5,44.2,30.10,East,92,0.0,0.0,99,0.00,,,0.08,Wunderground PWS Mod,2013-01-13 04:53:00,
2013-01-12 23:58:00,44.5,44.2,30.10,East,92,0.0,0.0,99,0.00,,,0.08,Wunderground PWS Mod,2013-01-13 04:58:00,